User: anonymous   Login
Location: Unspecified
(0.0000°N, 0.0000°E)
Time: 18:10:37
(UTC+02:00)
Language:

Cosmos 1536 - Orbit

View from above orbital plane
View from above orbital plane
View from above satellite
View from above satellite

Ground track
Ground track

The orbit data is extracted from the following two-line orbital elements,

1 14699U 84013A   16147.60797601  .00000470  00000-0  31361-4 0  9999
2 14699  82.5242 343.6983 0011348 298.2057  61.8023 15.04701877754950
Epoch (UTC): 26 May 2016 14:35:29
Eccentricity: 0.0011348
inclination: 82.5242°
perigee height: 544 km
apogee height: 560 km
right ascension of ascending node: 343.6983°
argument of perigee: 298.2057°
revolutions per day: 15.04701877
mean anomaly at epoch: 61.8023°
orbit number at epoch: 75495

The dashed part of the orbit path shows where the satellite is in the earth's shadow,  

DLR